Weather in Barranquilla

Colombia     10°57′18″N   74°47′11″W
temp.,
°C
wind,
m/s
gust,
m/s
humid.,
%
clouds,
%
prec.,
mm/h
press.,
hPa
HPBL,
m
9 may, sun
sun901:00+27ne5880100 0.0 1010342
04:00+26ene4783100 0.7 1009310
07:00+27e237790 1.8 1011375
10:00+31nne326091 0.1 10121158
13:00+31nne54626 0.9 1009972
16:00+29ne7768100 0.0 1008681
19:00+28ne71077100 0.0 1008440
22:00+28ne6975100 0.0 1009375
10 may, mon
mon1001:00+27ene4680100 0.0 1008257
04:00+27ene3482100 0.8 1008203
07:00+27e127852 1.3 1009330
10:00+30n1164100 0.0 1010877
13:00+32nne5458100 0.0 10081227
16:00+31nne4563100 0.0 1006704
19:00+28nne597593 0.2 1007373
22:00+28ese3673100 0.0 1009400
11 may, tue
tue1101:00+25sse3780100 0.6 1009418
04:00+23sse2488100 2.8 1010291
07:00+24sse238488 2.8 1012247
10:00+26n117499 0.0 1012434
13:00+28nne4570100 0.0 1009732
16:00+28nne467490 0.0 1008662
19:00+27nne698499 0.0 1009591
22:00+27ene3684100 0.0 1009302
12 may, wed
wed1201:00+26e248774 0.0 1008204
04:00+25ese248826 0.0 1009189
07:00+27e1280100 0.0 1011279
10:00+31e115783 0.0 10111170
13:00+31nne426254 0.1 1009881
16:00+30nne66655 0.0 1007730
19:00+27nne710865 0.0 1008393
22:00+28ne610845 0.0 1008348
13 may, thu
thu1301:00+27ne688238 0.0 1008311
04:00+27ene468795 0.0 1008301
07:00+28e348054 0.1 1010381
10:00+32ene235643 0.1 10101255
13:00+31ne6464100 0.2 1008706
16:00+30nne786977 0.0 1007638
19:00+28nne6108312 0.1 1008400
22:00+28ne598551 0.2 1009336